Unalakleet, AK

3:38 AM AKDT on March 28, 2017 (GMT -0800)
Unalakleet

Weather History for PAUN - July, 2013

Change the Weather History Date:

Thursday, July 18, 2013

  Actual Average Record
Temperature  
Mean Temperature 56 °F -  
Max Temperature 60 °F 61 °F 75 °F (1950)
Min Temperature 51 °F 49 °F 39 °F (1966)
Degree Days  
Heating Degree Days 10    
Growing Degree Days 6 (Base 50)    
Moisture  
Dew Point 51 °F    
Average Humidity 84    
Maximum Humidity 94    
Minimum Humidity 72    
Precipitation  
Precipitation 0.06 in - - ()
Sea Level Pressure  
Sea Level Pressure 30.06 in    
Wind  
Wind Speed 4 mph (NNW)    
Max Wind Speed 13 mph    
Max Gust Speed -    
Visibility 10 miles    
Events      
Averages and records for this station are not official NWS values.
T = Trace of Precipitation, MM = Missing Value Source: NWS Daily Summary

Daily Weather History Graph

Daily Weather History Graph

Search for Another Location

Airport or City:

Trip Planner

Search our weather history database for the weather conditions in past years. The results will help you decide how hot, cold, wet, or windy it might be!

Date:

Astronomy

Jul. 18, 2013 Rise Set
Actual Time 5:10 AM AKDT 12:25 AM AKDT
Civil Twilight 3:21 AM AKDT 2:17 AM AKDT
Nautical Twilight Sun does not rise Sun does not rise
Astronomical Twilight Sun does not rise Sun does not rise
Moon 8:20 PM AKDT (7/18) 1:41 AM AKDT (7/18)
Length of Visible Light 22h 55m
Length of Day
19h 15m
Waxing Gibbous, 79% of the Moon is Illuminated
Jul 18
Waxing Gibbous
Jul 22
Full
Jul 29
Last Quarter
Aug 6
New
Aug 14
First Quarter

Hourly Weather History & Observations

Time (AKDT) Temp. Dew Point Humidity Pressure Visibility Wind Dir Wind Speed Gust Speed Precip Events Conditions
12:16 AM 53.6 °F 48.2 °F 82% 30.11 in 10.0 mi North 3.5 mph - N/A   Overcast
12:36 AM 53.6 °F 48.2 °F 82% 30.11 in 10.0 mi Calm Calm - N/A   Overcast
12:56 AM 53.6 °F 48.2 °F 82% 30.11 in 10.0 mi Calm Calm - N/A   Overcast
1:16 AM 53.6 °F 48.2 °F 82% 30.11 in 10.0 mi Calm Calm - N/A   Overcast
1:36 AM 53.6 °F 48.2 °F 82% 30.11 in 10.0 mi Calm Calm - N/A   Overcast
1:56 AM 53.6 °F 48.2 °F 82% 30.11 in 10.0 mi Calm Calm - N/A   Overcast
2:16 AM 53.6 °F 48.2 °F 82% 30.11 in 10.0 mi Calm Calm - N/A   Overcast
2:36 AM 53.6 °F 48.2 °F 82% 30.11 in 10.0 mi Calm Calm - N/A   Overcast
2:56 AM 51.8 °F 48.2 °F 88% 30.11 in 10.0 mi Calm Calm - N/A   Overcast
3:16 AM 51.8 °F 48.2 °F 88% 30.10 in 10.0 mi Calm Calm - N/A   Overcast
3:36 AM 51.8 °F 48.2 °F 88% 30.10 in 10.0 mi East 4.6 mph - N/A   Overcast
3:56 AM 51.8 °F 48.2 °F 88% 30.10 in 10.0 mi Calm Calm - N/A   Overcast
4:16 AM 51.8 °F 48.2 °F 88% 30.10 in 10.0 mi Calm Calm - N/A   Overcast
4:36 AM 53.6 °F 48.2 °F 82% 30.10 in 10.0 mi Calm Calm - N/A   Overcast
4:56 AM 53.6 °F 48.2 °F 82% 30.09 in 10.0 mi Calm Calm - N/A   Overcast
5:16 AM 53.6 °F 48.2 °F 82% 30.09 in 10.0 mi Calm Calm - N/A   Overcast
5:36 AM 51.8 °F 48.2 °F 88% 30.09 in 10.0 mi Calm Calm - N/A   Overcast
5:56 AM 53.6 °F 48.2 °F 82% 30.09 in 10.0 mi Calm Calm - N/A   Overcast
6:16 AM 53.6 °F 48.2 °F 82% 30.09 in 10.0 mi Calm Calm - N/A   Overcast
6:36 AM 53.6 °F 48.2 °F 82% 30.09 in 10.0 mi Calm Calm - N/A   Overcast
6:56 AM 53.6 °F 48.2 °F 82% 30.08 in 10.0 mi Calm Calm - N/A   Overcast
7:16 AM 53.6 °F 50.0 °F 88% 30.07 in 10.0 mi Calm Calm - N/A   Overcast
7:36 AM 55.4 °F 48.2 °F 77% 30.07 in 10.0 mi Calm Calm - N/A   Overcast
7:56 AM 55.4 °F 48.2 °F 77% 30.06 in 10.0 mi ENE 6.9 mph - N/A   Mostly Cloudy
8:16 AM 53.6 °F 48.2 °F 82% 30.06 in 10.0 mi ENE 6.9 mph - N/A   Partly Cloudy
8:36 AM 55.4 °F 48.2 °F 77% 30.06 in 10.0 mi East 8.1 mph - N/A   Clear
8:56 AM 55.4 °F 48.2 °F 77% 30.06 in 10.0 mi ENE 5.8 mph - N/A   Mostly Cloudy
9:16 AM 55.4 °F 50.0 °F 82% 30.06 in 10.0 mi ENE 4.6 mph - N/A   Overcast
9:36 AM 57.2 °F 50.0 °F 77% 30.06 in 10.0 mi ENE 3.5 mph - N/A   Overcast
9:56 AM 57.2 °F 51.8 °F 82% 30.06 in 10.0 mi Calm Calm - N/A   Overcast
10:16 AM 55.4 °F 51.8 °F 88% 30.06 in 10.0 mi NW 4.6 mph - N/A   Overcast
10:36 AM 55.4 °F 51.8 °F 88% 30.05 in 10.0 mi NNW 6.9 mph - N/A   Overcast
10:56 AM 57.2 °F 51.8 °F 82% 30.05 in 10.0 mi NNW 9.2 mph - N/A   Mostly Cloudy
11:16 AM 57.2 °F 50.0 °F 77% 30.04 in 10.0 mi North 9.2 mph - N/A   Mostly Cloudy
11:36 AM 59.0 °F 51.8 °F 77% 30.03 in 10.0 mi NNW 8.1 mph - N/A   Scattered Clouds
11:56 AM 60.8 °F 51.8 °F 72% 30.03 in 10.0 mi East 4.6 mph - N/A   Mostly Cloudy
12:16 PM 60.8 °F 51.8 °F 72% 30.03 in 10.0 mi Calm Calm - N/A   Overcast
12:36 PM 57.2 °F 51.8 °F 82% 30.03 in 10.0 mi NNW 12.7 mph - N/A   Overcast
12:56 PM 57.2 °F 51.8 °F 82% 30.02 in 10.0 mi NNW 12.7 mph - N/A   Overcast
1:16 PM 59.0 °F 51.8 °F 77% 30.02 in 10.0 mi NNW 10.4 mph - N/A   Overcast
1:36 PM 57.2 °F 51.8 °F 82% 30.02 in 10.0 mi NNW 12.7 mph - N/A   Overcast
1:56 PM 57.2 °F 51.8 °F 82% 30.02 in 10.0 mi NNW 11.5 mph - N/A   Overcast
2:16 PM 57.2 °F 51.8 °F 82% 30.01 in 10.0 mi NNW 11.5 mph - N/A   Overcast
2:36 PM 57.2 °F 51.8 °F 82% 30.01 in 10.0 mi North 10.4 mph - N/A   Mostly Cloudy
2:56 PM 57.2 °F 51.8 °F 82% 30.02 in 10.0 mi NNW 4.6 mph - N/A   Overcast
3:16 PM 57.2 °F 53.6 °F 88% 30.02 in 10.0 mi NNW 6.9 mph - N/A   Overcast
3:36 PM 59.0 °F 53.6 °F 82% 30.02 in 10.0 mi NW 3.5 mph - 0.01 in   Overcast
3:56 PM 57.2 °F 53.6 °F 88% 30.02 in 10.0 mi NNW 4.6 mph - 0.01 in   Mostly Cloudy
4:16 PM 57.2 °F 53.6 °F 88% 30.02 in 10.0 mi NNW 6.9 mph - 0.01 in   Overcast
4:36 PM 57.2 °F 53.6 °F 88% 30.02 in 10.0 mi NNW 9.2 mph - 0.02 in   Overcast
4:56 PM 57.2 °F 53.6 °F 88% 30.02 in 10.0 mi NNW 10.4 mph - 0.02 in   Overcast
5:16 PM 57.2 °F 53.6 °F 88% 30.02 in 10.0 mi NNW 11.5 mph - 0.01 in   Overcast
5:36 PM 57.2 °F 53.6 °F 88% 30.02 in 10.0 mi NNW 10.4 mph - 0.01 in   Overcast
5:56 PM 57.2 °F 53.6 °F 88% 30.02 in 10.0 mi NNW 10.4 mph - 0.02 in   Overcast
6:16 PM 57.2 °F 53.6 °F 88% 30.01 in 10.0 mi NNW 10.4 mph - N/A   Overcast
6:36 PM 57.2 °F 53.6 °F 88% 30.02 in 10.0 mi NNW 8.1 mph - N/A   Overcast
6:56 PM 57.2 °F 53.6 °F 88% 30.02 in 10.0 mi NW 12.7 mph - N/A   Overcast
7:16 PM 55.4 °F 53.6 °F 94% 30.03 in 10.0 mi NNW 12.7 mph - 0.01 in   Overcast
7:36 PM 55.4 °F 53.6 °F 94% 30.03 in 10.0 mi NNW 11.5 mph - 0.01 in   Overcast
7:56 PM 55.4 °F 51.8 °F 88% 30.04 in 10.0 mi NW 10.4 mph - 0.01 in   Overcast
8:16 PM 55.4 °F 51.8 °F 88% 30.04 in 10.0 mi NW 11.5 mph - N/A   Overcast
8:36 PM 55.4 °F 51.8 °F 88% 30.04 in 10.0 mi NW 10.4 mph - N/A   Overcast
8:56 PM 55.4 °F 51.8 °F 88% 30.05 in 10.0 mi NW 11.5 mph - N/A   Overcast
9:16 PM 55.4 °F 51.8 °F 88% 30.05 in 10.0 mi NW 10.4 mph - N/A   Overcast
9:36 PM 55.4 °F 51.8 °F 88% 30.05 in 10.0 mi WNW 10.4 mph - N/A   Overcast
9:56 PM 55.4 °F 51.8 °F 88% 30.06 in 10.0 mi WNW 9.2 mph - N/A   Overcast
10:16 PM 55.4 °F 51.8 °F 88% 30.07 in 10.0 mi WNW 9.2 mph - N/A   Overcast
10:36 PM 55.4 °F 51.8 °F 88% 30.08 in 10.0 mi West 9.2 mph - N/A   Overcast
10:56 PM 55.4 °F 51.8 °F 88% 30.09 in 10.0 mi West 11.5 mph - N/A   Overcast
11:16 PM 55.4 °F 50.0 °F 82% 30.09 in 10.0 mi West 11.5 mph - N/A   Overcast
11:36 PM 55.4 °F 50.0 °F 82% 30.09 in 10.0 mi West 9.2 mph - N/A   Overcast
11:56 PM 55.4 °F 51.8 °F 88% 30.10 in 10.0 mi West 9.2 mph - N/A   Overcast